Date String (YYYY-MM-DD hh:mm:ss) UTC,Instrument flags,Ambient pressure (hPa),Sample flow (lpm),Bypass flow (lpm),Sample temperature (°C),Ambient temperature (°C),ASC tube jacket temperature (°C),LED temperature (°C),Box temperature (°C),Sample RH (%),Span deviation,Mass concentration (μg/m³),Mass concentration (μg/m³),Mass concentration (μg/m³)
DateTimeUTC,F1_M11,P_M11,Q1_M11,Q2_M11,T1_M11,T2_M11,T3_M11,T4_M11,T5_M11,U1_M11,ZSPAN_M11,X2_M11,X0_M11,X1_M11
2021-09-29 19:00:00,,0824.2,4.99,0.00,30.0,29.1,00.0,38.9,31.9,21.1,0001.8,0007.51,0016.36,0006.81
2021-09-29 19:01:00,,0824.3,5.01,0.00,30.0,29.2,00.0,38.9,31.9,20.9,0001.7,0007.58,0016.55,0006.87
2021-09-29 19:02:00,,0824.2,4.99,0.00,30.1,29.2,00.0,39.0,32.0,20.9,0001.8,0007.66,0015.88,0006.91
2021-09-29 19:03:00,,0824.2,4.99,0.00,30.1,29.2,00.0,39.0,32.0,20.9,0001.5,0007.77,0016.09,0006.97
2021-09-29 19:04:00,,0824.2,5.01,0.00,30.1,29.3,00.0,39.0,32.0,20.8,0001.5,0007.85,0016.37,0007.04
2021-09-29 19:05:00,,0824.2,4.99,0.00,30.2,29.3,00.0,39.1,32.0,20.7,0001.5,0007.86,0015.97,0007.10
2021-09-29 19:06:00,,0824.3,5.00,0.00,30.2,29.4,00.0,39.1,32.0,20.6,0001.6,0007.90,0016.63,0007.15
2021-09-29 19:07:00,,0824.4,5.01,0.00,30.2,29.4,00.0,39.1,32.1,20.7,0001.7,0007.94,0016.45,0007.20
2021-09-29 19:08:00,,0824.5,4.99,0.00,30.2,29.4,00.0,39.2,32.1,21.2,0001.8,0008.02,0016.57,0007.21
2021-09-29 19:09:00,,0824.4,5.00,0.00,30.2,27.9,00.0,39.1,31.7,21.9,0002.1,0008.08,0017.89,0007.20
2021-09-29 19:10:00,,0824.5,5.00,0.00,30.0,26.5,00.0,39.1,31.3,22.2,0002.2,0008.12,0019.12,0007.21
2021-09-29 19:11:00,,0824.5,5.00,0.00,29.9,26.6,00.0,39.1,31.2,22.3,0002.4,0008.08,0018.20,0007.20
2021-09-29 19:12:00,,0824.5,5.01,0.00,29.8,27.0,00.0,39.0,31.3,22.5,0002.5,0008.04,0018.30,0007.16
2021-09-29 19:13:00,,0824.4,5.00,0.00,29.8,27.4,00.0,39.0,31.4,22.9,0002.5,0007.96,0018.17,0007.11
2021-09-29 19:14:00,,0824.4,5.01,0.00,29.8,27.8,00.0,39.0,31.5,21.9,0002.7,0007.87,0017.95,0007.06
2021-09-29 19:15:00,,0824.4,4.99,0.00,29.8,28.0,00.0,39.0,31.5,22.5,0002.8,0007.84,0018.51,0007.02
2021-09-29 19:16:00,,0824.4,5.00,0.00,29.8,28.3,00.0,39.0,31.6,22.8,0002.8,0007.83,0018.78,0006.97
2021-09-29 19:17:00,,0824.4,4.99,0.00,29.9,28.5,00.0,39.0,31.6,23.5,0002.8,0007.82,0018.24,0006.95
2021-09-29 19:18:00,,0824.5,5.01,0.00,29.9,28.7,00.0,39.0,31.7,24.4,0002.8,0007.83,0017.77,0006.93
2021-09-29 19:19:00,,0824.4,5.00,0.00,29.9,28.8,00.0,39.0,31.7,23.0,0002.9,0007.82,0017.37,0006.92
2021-09-29 19:20:00,,0824.5,5.00,0.00,29.9,28.9,00.0,39.0,31.7,22.9,0002.7,0007.74,0016.38,0006.91
2021-09-29 19:21:00,,0824.4,4.99,0.00,30.0,29.0,00.0,39.0,31.8,22.6,0002.8,0007.64,0014.70,0006.87
2021-09-29 19:22:00,,0824.4,5.01,0.00,30.0,29.0,00.0,39.0,31.9,21.9,0002.7,0007.59,0015.14,0006.86
2021-09-29 19:23:00,,0824.4,5.00,0.00,30.0,29.1,00.0,39.0,31.9,22.6,0002.6,0007.58,0015.44,0006.87
2021-09-29 19:24:00,,0824.5,5.00,0.00,30.1,29.2,00.0,39.1,31.9,22.5,0002.5,0007.62,0015.59,0006.89
2021-09-29 19:25:00,,0824.5,5.00,0.00,30.1,29.2,00.0,39.1,32.0,22.4,0002.5,0007.62,0015.46,0006.91
2021-09-29 19:26:00,,0824.5,4.99,0.00,30.1,29.3,00.0,39.1,32.0,22.8,0002.4,0007.65,0014.73,0006.94
2021-09-29 19:27:00,,0824.4,4.99,0.00,30.2,29.3,00.0,39.1,32.0,23.2,0002.4,0007.69,0014.25,0006.98
2021-09-29 19:28:00,,0824.5,5.01,0.00,30.2,29.3,00.0,39.1,32.1,23.0,0002.6,0007.73,0014.88,0007.00
2021-09-29 19:29:00,,0824.4,4.99,0.00,30.2,29.2,00.0,39.2,32.0,23.2,0002.6,0007.78,0015.47,0007.04
2021-09-29 19:30:00,,0824.5,5.00,0.00,30.1,27.3,00.0,39.1,31.5,23.2,0002.5,0007.83,0015.79,0007.09
2021-09-29 19:31:00,,0824.5,5.00,0.00,30.0,26.3,00.0,39.1,31.2,24.0,0002.6,0007.89,0016.00,0007.13
2021-09-29 19:32:00,,0824.5,5.01,0.00,29.9,26.4,00.0,39.1,31.2,24.1,0002.5,0007.99,0016.27,0007.16
2021-09-29 19:33:00,,0824.5,4.99,0.00,29.8,26.9,00.0,39.0,31.3,24.2,0002.6,0008.02,0016.08,0007.17
2021-09-29 19:34:00,,0824.5,5.00,0.00,29.8,27.3,00.0,39.0,31.3,24.5,0002.5,0008.08,0016.29,0007.17
2021-09-29 19:35:00,,0824.4,5.00,0.00,29.8,27.7,00.0,39.0,31.4,24.2,0002.3,0008.13,0016.84,0007.18
2021-09-29 19:36:00,,0824.5,5.01,0.00,29.8,28.0,00.0,38.9,31.5,25.0,0002.3,0008.27,0018.94,0007.17
2021-09-29 19:37:00,,0824.5,4.98,0.00,29.8,28.2,00.0,38.9,31.6,24.4,0002.5,0008.34,0020.49,0007.16
2021-09-29 19:38:00,,0824.4,5.02,0.00,29.8,28.4,00.0,38.9,31.6,24.6,0002.7,0008.35,0020.38,0007.13
2021-09-29 19:39:00,,0824.5,4.99,0.00,29.8,28.5,00.0,38.9,31.6,24.2,0002.6,0008.32,0021.08,0007.10
2021-09-29 19:40:00,,0824.4,5.00,0.00,29.9,28.7,00.0,38.9,31.7,24.8,0002.3,0008.28,0022.28,0007.04
2021-09-29 19:41:00,,0824.4,5.01,0.00,29.9,28.8,00.0,39.0,31.7,24.6,0002.4,0008.26,0023.32,0006.98
2021-09-29 19:42:00,,0824.4,4.99,0.00,29.9,28.9,00.0,39.0,31.8,25.2,0002.4,0008.25,0024.58,0006.93
2021-09-29 19:43:00,,0824.5,5.01,0.00,29.9,29.0,00.0,39.0,31.8,25.5,0002.3,0008.18,0025.29,0006.86
2021-09-29 19:44:00,,0824.4,5.00,0.00,30.0,29.0,00.0,39.0,31.8,25.1,0002.4,0008.18,0025.36,0006.81
2021-09-29 19:45:00,,0824.4,4.98,0.00,30.0,29.1,00.0,39.0,31.8,24.7,0002.5,0008.11,0025.29,0006.74
2021-09-29 19:46:00,,0824.6,5.00,0.00,30.0,29.1,00.0,39.0,31.9,25.5,0002.7,0008.12,0025.56,0006.68
2021-09-29 19:47:00,,0824.5,5.01,0.00,30.1,29.2,00.0,39.0,31.9,25.8,0002.7,0008.07,0023.97,0006.63
2021-09-29 19:48:00,,0824.6,4.99,0.00,30.1,29.2,00.0,39.1,31.9,25.0,0002.5,0008.02,0023.73,0006.57
2021-09-29 19:49:00,,0824.6,5.00,0.00,30.1,29.3,00.0,39.1,32.0,24.4,0002.2,0008.02,0023.98,0006.53
2021-09-29 19:50:00,,0824.6,5.01,0.00,30.1,29.3,00.0,39.1,32.0,22.7,0002.1,0008.04,0022.69,0006.49
2021-09-29 19:51:00,,0825.0,4.98,0.00,30.2,29.3,00.0,39.1,32.0,22.6,0002.2,0008.05,0021.20,0006.46
2021-09-29 19:52:00,,0824.6,5.00,0.00,30.2,29.4,00.0,39.1,32.0,22.3,0002.0,0008.08,0020.09,0006.41
2021-09-29 19:53:00,,0824.6,5.02,0.00,30.2,29.4,00.0,39.2,32.0,22.4,0002.1,0008.08,0019.44,0006.38
2021-09-29 19:54:00,,0824.7,5.00,0.00,30.2,29.4,00.0,39.2,32.0,22.1,0002.2,0008.06,0019.45,0006.37
2021-09-29 19:55:00,,0824.7,4.98,0.00,30.2,29.4,00.0,39.2,32.0,22.2,0002.2,0008.11,0019.93,0006.36
2021-09-29 19:56:00,,0824.8,5.00,0.00,30.2,29.4,00.0,39.2,32.0,22.0,0002.0,0008.12,0020.16,0006.34
2021-09-29 19:57:00,,0824.9,5.00,0.00,30.3,29.5,00.0,39.2,32.1,22.2,0001.7,0008.02,0020.78,0006.33
2021-09-29 19:58:00,,0824.9,5.01,0.00,30.3,29.0,00.0,39.3,31.9,22.3,0001.7,0007.98,0022.03,0006.32
2021-09-29 19:59:00,,0824.9,5.00,0.00,30.1,27.0,00.0,39.2,31.3,22.6,0001.6,0008.02,0021.68,0006.33
